User: anonymous   Login
Location: Julian California
(33.0790°N, 116.6010°W)
Time: 09:02:08
(UTC-08:00)
Language:

Cosmos 2058 - Orbit

View from above orbital plane
View from above orbital plane
View from above satellite
View from above satellite

Ground track
Ground track

The orbit data is extracted from the following two-line orbital elements,

1 20465U 90010A   18344.99669580  .00000238  00000-0  17955-4 0  9993
2 20465  82.4905  86.7958 0013959 269.1916  90.7707 14.97803415566437
Epoch (UTC): 10 December 2018 23:55:14
Eccentricity: 0.0013959
inclination: 82.4905°
perigee height: 564 km
apogee height: 583 km
right ascension of ascending node: 86.7958°
argument of perigee: 269.1916°
revolutions per day: 14.97803415
mean anomaly at epoch: 90.7707°
orbit number at epoch: 56643

The dashed part of the orbit path shows where the satellite is in the earth's shadow,  

DLR